GLO1436 SBCY-SBPV

Flight info

Callsign GLO1436
Flight time 1h 33m
Altitude FL360
Route OMNI/35 ISUDU UL655 DIKAL
Aircraft B738/M-S/N

Departure

Time 2026-04-26 16:13
Airport Várzea Grande–Marechal Rondon International Airport (SBCY)

Arrival

Time 2026-04-26 17:46
Airport Governador Jorge Teixeira de Oliveira International Airport (SBPV)
Time Latitude Longitude Altitude Speed Heading
2026-04-26 16:02 -15.65186 -56.11882 622 ft 0 kts 242°
2026-04-26 16:06 -15.65179 -56.11869 622 ft 3 kts 242°
2026-04-26 16:06 -15.65170 -56.11852 622 ft 3 kts 242°
2026-04-26 16:06 -15.65164 -56.11840 622 ft 0 kts 242°
2026-04-26 16:06 -15.65165 -56.11842 622 ft 1 kts 236°
2026-04-26 16:07 -15.65171 -56.11847 622 ft 1 kts 210°
2026-04-26 16:07 -15.65182 -56.11848 622 ft 2 kts 174°
2026-04-26 16:07 -15.65193 -56.11839 622 ft 2 kts 126°
2026-04-26 16:07 -15.65197 -56.11820 622 ft 3 kts 102°
2026-04-26 16:08 -15.65213 -56.11803 622 ft 4 kts 153°
2026-04-26 16:08 -15.65232 -56.11793 622 ft 5 kts 153°
2026-04-26 16:08 -15.65281 -56.11768 622 ft 7 kts 153°
2026-04-26 16:08 -15.65330 -56.11742 622 ft 8 kts 153°
2026-04-26 16:09 -15.65386 -56.11712 622 ft 10 kts 153°
2026-04-26 16:09 -15.65445 -56.11681 622 ft 10 kts 153°
2026-04-26 16:09 -15.65509 -56.11647 622 ft 11 kts 153°
2026-04-26 16:09 -15.65581 -56.11609 622 ft 12 kts 153°
2026-04-26 16:10 -15.65662 -56.11567 622 ft 14 kts 154°
2026-04-26 16:10 -15.65752 -56.11523 622 ft 15 kts 154°
2026-04-26 16:10 -15.65836 -56.11481 622 ft 16 kts 154°
2026-04-26 16:10 -15.65947 -56.11425 622 ft 15 kts 154°
2026-04-26 16:11 -15.66040 -56.11378 622 ft 16 kts 154°
2026-04-26 16:11 -15.66104 -56.11342 622 ft 6 kts 143°
2026-04-26 16:11 -15.66112 -56.11307 622 ft 5 kts 64°
2026-04-26 16:11 -15.66092 -56.11269 622 ft 7 kts 62°
2026-04-26 16:12 -15.66065 -56.11234 622 ft 3 kts 12°
2026-04-26 16:12 -15.66039 -56.11245 622 ft 11 kts 333°
2026-04-26 16:12 -15.64995 -56.11792 622 ft 153 kts 334°
2026-04-26 16:13 -15.63912 -56.12354 769 ft 184 kts 334°
2026-04-26 16:13 -15.62907 -56.12878 1984 ft 152 kts 335°
2026-04-26 16:13 -15.61880 -56.13414 2428 ft 180 kts 335°
2026-04-26 16:13 -15.60693 -56.14035 2922 ft 203 kts 332°
2026-04-26 16:14 -15.59608 -56.15124 3413 ft 234 kts 303°
2026-04-26 16:14 -15.59239 -56.16837 4075 ft 258 kts 273°
2026-04-26 16:14 -15.59589 -56.20329 5838 ft 274 kts 265°
2026-04-26 16:15 -15.59784 -56.22281 6928 ft 279 kts 266°
2026-04-26 16:15 -15.59922 -56.23850 7769 ft 281 kts 267°
2026-04-26 16:15 -15.60078 -56.25882 8829 ft 285 kts 268°
2026-04-26 16:16 -15.60271 -56.29236 10479 ft 293 kts 269°
2026-04-26 16:16 -15.60364 -56.31530 11029 ft 317 kts 270°
2026-04-26 16:16 -15.60428 -56.33894 11536 ft 335 kts 270°
2026-04-26 16:16 -15.60463 -56.36320 12424 ft 340 kts 271°
2026-04-26 16:17 -15.60487 -56.38806 13223 ft 348 kts 271°
2026-04-26 16:17 -15.60510 -56.41320 14008 ft 355 kts 271°
2026-04-26 16:17 -15.60507 -56.43909 14782 ft 361 kts 271°
2026-04-26 16:17 -15.60486 -56.46494 15717 ft 359 kts 271°
2026-04-26 16:18 -15.60466 -56.49027 17057 ft 345 kts 271°
2026-04-26 16:18 -15.60437 -56.54102 18328 ft 360 kts 271°
2026-04-26 16:19 -15.60337 -56.59324 19650 ft 367 kts 272°
2026-04-26 16:19 -15.60266 -56.61968 20264 ft 371 kts 272°
2026-04-26 16:19 -15.60125 -56.67374 21449 ft 379 kts 273°
2026-04-26 16:20 -15.60052 -56.70110 22015 ft 382 kts 272°
2026-04-26 16:20 -15.59903 -56.75645 23089 ft 389 kts 273°
2026-04-26 16:20 -15.59830 -56.78461 23633 ft 392 kts 273°
2026-04-26 16:21 -15.59751 -56.81290 24114 ft 396 kts 273°
2026-04-26 16:21 -15.59632 -56.84146 24590 ft 399 kts 277°
2026-04-26 16:21 -15.58807 -56.86852 25022 ft 399 kts 298°
2026-04-26 16:21 -15.57219 -56.89236 25525 ft 401 kts 309°
2026-04-26 16:22 -15.55444 -56.91446 25979 ft 404 kts 311°
2026-04-26 16:22 -15.53607 -56.93653 26437 ft 406 kts 311°
2026-04-26 16:22 -15.51752 -56.95876 26880 ft 409 kts 311°
2026-04-26 16:22 -15.49890 -56.98106 27306 ft 411 kts 311°
2026-04-26 16:23 -15.48001 -57.00332 27722 ft 414 kts 313°
2026-04-26 16:23 -15.46071 -57.02562 28123 ft 416 kts 313°
2026-04-26 16:23 -15.44131 -57.04801 28535 ft 418 kts 313°
2026-04-26 16:23 -15.42186 -57.07045 28972 ft 419 kts 313°
2026-04-26 16:24 -15.40240 -57.09254 29487 ft 418 kts 314°
2026-04-26 16:24 -15.38265 -57.11458 29982 ft 417 kts 314°
2026-04-26 16:24 -15.36314 -57.13676 30490 ft 417 kts 314°
2026-04-26 16:24 -15.34359 -57.15893 30981 ft 416 kts 315°
2026-04-26 16:25 -15.32407 -57.18067 31463 ft 416 kts 315°
2026-04-26 16:25 -15.30457 -57.20286 31936 ft 416 kts 314°
2026-04-26 16:25 -15.28513 -57.22483 32477 ft 413 kts 315°
2026-04-26 16:25 -15.26568 -57.24651 33036 ft 411 kts 315°
2026-04-26 16:26 -15.24641 -57.26848 33564 ft 409 kts 314°
2026-04-26 16:26 -15.23603 -57.28021 33836 ft 408 kts 315°
2026-04-26 16:26 -15.20816 -57.31135 34611 ft 404 kts 314°
2026-04-26 16:26 -15.18939 -57.33275 35100 ft 402 kts 314°
2026-04-26 16:27 -15.17048 -57.35390 35576 ft 401 kts 314°
2026-04-26 16:27 -15.15163 -57.37511 35874 ft 404 kts 314°
2026-04-26 16:27 -15.11289 -57.41873 35970 ft 420 kts 314°
2026-04-26 16:28 -15.07277 -57.46397 35970 ft 436 kts 314°
2026-04-26 16:28 -15.03152 -57.51066 35969 ft 450 kts 314°
2026-04-26 16:29 -14.98864 -57.55958 35968 ft 461 kts 314°
2026-04-26 16:29 -14.94546 -57.60875 35968 ft 467 kts 314°
2026-04-26 16:30 -14.90168 -57.65851 35968 ft 468 kts 314°
2026-04-26 16:30 -14.85771 -57.70761 35968 ft 468 kts 313°
2026-04-26 16:31 -14.81372 -57.75680 35967 ft 467 kts 314°
2026-04-26 16:31 -14.77002 -57.80602 35967 ft 467 kts 314°
2026-04-26 16:32 -14.73301 -57.84722 35968 ft 467 kts 314°
2026-04-26 16:32 -14.68163 -57.90460 35967 ft 468 kts 314°
2026-04-26 16:33 -14.63756 -57.95405 35989 ft 470 kts 315°
2026-04-26 16:33 -14.59335 -58.00341 35990 ft 470 kts 314°
2026-04-26 16:34 -14.55108 -58.05053 35990 ft 470 kts 314°
2026-04-26 16:34 -14.50899 -58.09729 35990 ft 470 kts 314°
2026-04-26 16:35 -14.46201 -58.14899 35989 ft 470 kts 314°
2026-04-26 16:35 -14.41750 -58.19829 36004 ft 471 kts 314°
2026-04-26 16:36 -14.37299 -58.24775 36005 ft 471 kts 314°
2026-04-26 16:36 -14.32853 -58.29718 36005 ft 471 kts 314°
2026-04-26 16:37 -14.28425 -58.34648 36005 ft 471 kts 314°
2026-04-26 16:37 -14.23967 -58.39596 36004 ft 473 kts 314°
2026-04-26 16:38 -14.19494 -58.44566 36004 ft 474 kts 314°
2026-04-26 16:38 -14.15031 -58.49512 36004 ft 473 kts 314°
2026-04-26 16:39 -14.10561 -58.54482 36004 ft 473 kts 314°
2026-04-26 16:39 -14.06090 -58.59442 36000 ft 473 kts 314°
2026-04-26 16:40 -14.01628 -58.64389 35999 ft 473 kts 314°
2026-04-26 16:40 -13.97135 -58.69335 35999 ft 473 kts 314°
2026-04-26 16:41 -13.92665 -58.74274 35999 ft 473 kts 314°
2026-04-26 16:41 -13.88203 -58.79203 35999 ft 473 kts 314°
2026-04-26 16:42 -13.83988 -58.83860 36007 ft 472 kts 314°
2026-04-26 16:42 -13.79243 -58.89103 36008 ft 473 kts 314°
2026-04-26 16:43 -13.74791 -58.94050 36008 ft 473 kts 314°
2026-04-26 16:43 -13.70282 -58.98977 36008 ft 473 kts 315°
2026-04-26 16:44 -13.65772 -59.03849 36008 ft 473 kts 315°
2026-04-26 16:44 -13.61222 -59.08759 36010 ft 473 kts 315°
2026-04-26 16:45 -13.56697 -59.13635 36010 ft 474 kts 315°
2026-04-26 16:45 -13.52153 -59.18508 36010 ft 474 kts 315°
2026-04-26 16:46 -13.47593 -59.23399 36010 ft 474 kts 315°
2026-04-26 16:46 -13.43028 -59.28286 36008 ft 475 kts 315°
2026-04-26 16:47 -13.38473 -59.33192 36008 ft 475 kts 315°
2026-04-26 16:47 -13.33927 -59.38085 36008 ft 475 kts 315°
2026-04-26 16:48 -13.29344 -59.42993 36008 ft 476 kts 315°
2026-04-26 16:48 -13.24774 -59.47888 35999 ft 475 kts 315°
2026-04-26 16:49 -13.20240 -59.52784 35997 ft 475 kts 314°
2026-04-26 16:49 -13.15709 -59.57696 35997 ft 476 kts 314°
2026-04-26 16:50 -13.11153 -59.62623 35997 ft 476 kts 314°
2026-04-26 16:50 -13.06603 -59.67535 35997 ft 477 kts 314°
2026-04-26 16:51 -13.02061 -59.72432 35997 ft 478 kts 314°
2026-04-26 16:51 -12.97465 -59.77381 35997 ft 478 kts 314°
2026-04-26 16:52 -12.93631 -59.81505 35997 ft 479 kts 314°
2026-04-26 16:52 -12.88285 -59.87248 35997 ft 479 kts 314°
2026-04-26 16:53 -12.83720 -59.92147 35994 ft 476 kts 315°
2026-04-26 16:53 -12.79146 -59.97047 35994 ft 476 kts 315°
2026-04-26 16:54 -12.74577 -60.01938 35993 ft 477 kts 315°
2026-04-26 16:54 -12.69995 -60.06838 35993 ft 477 kts 315°
2026-04-26 16:55 -12.65692 -60.11431 35994 ft 475 kts 314°
2026-04-26 16:55 -12.61274 -60.16140 35992 ft 470 kts 314°
2026-04-26 16:56 -12.54464 -60.23393 35992 ft 472 kts 314°
2026-04-26 16:57 -12.49919 -60.28226 35992 ft 472 kts 314°
2026-04-26 16:57 -12.43113 -60.35446 35986 ft 473 kts 314°
2026-04-26 16:58 -12.39324 -60.39461 35986 ft 473 kts 314°
2026-04-26 16:59 -12.31707 -60.47547 35986 ft 474 kts 314°
2026-04-26 17:00 -12.22505 -60.57130 35972 ft 473 kts 316°
2026-04-26 17:00 -12.15504 -60.64219 35971 ft 474 kts 316°
2026-04-26 17:01 -12.10826 -60.68928 35971 ft 474 kts 316°
2026-04-26 17:01 -12.06149 -60.73659 35972 ft 474 kts 316°
2026-04-26 17:02 -12.01483 -60.78372 35973 ft 474 kts 316°
2026-04-26 17:02 -11.96786 -60.83095 35973 ft 474 kts 316°
2026-04-26 17:03 -11.92113 -60.87820 35973 ft 474 kts 316°
2026-04-26 17:03 -11.87418 -60.92537 35973 ft 475 kts 316°
2026-04-26 17:04 -11.82740 -60.97259 35978 ft 475 kts 316°
2026-04-26 17:04 -11.78021 -61.01998 35979 ft 475 kts 316°
2026-04-26 17:05 -11.73332 -61.06719 35979 ft 475 kts 316°
2026-04-26 17:05 -11.68631 -61.11449 35978 ft 476 kts 316°
2026-04-26 17:06 -11.63925 -61.16174 35973 ft 476 kts 316°
2026-04-26 17:06 -11.59199 -61.20892 35971 ft 476 kts 316°
2026-04-26 17:07 -11.54480 -61.25589 35971 ft 476 kts 316°
2026-04-26 17:07 -11.49723 -61.30287 35972 ft 476 kts 316°
2026-04-26 17:08 -11.45018 -61.34987 35971 ft 476 kts 316°
2026-04-26 17:08 -11.40286 -61.39715 35983 ft 478 kts 316°
2026-04-26 17:09 -11.36336 -61.43670 35982 ft 478 kts 316°
2026-04-26 17:09 -11.30988 -61.49364 35982 ft 478 kts 314°
2026-04-26 17:10 -11.26409 -61.54262 35983 ft 478 kts 314°
2026-04-26 17:10 -11.21785 -61.59192 35983 ft 487 kts 314°
2026-04-26 17:11 -11.17094 -61.64196 35982 ft 494 kts 314°
2026-04-26 17:11 -11.12358 -61.69250 35982 ft 494 kts 314°
2026-04-26 17:12 -11.05259 -61.76812 35986 ft 493 kts 314°
2026-04-26 17:13 -10.98175 -61.84371 35982 ft 493 kts 314°
2026-04-26 17:14 -10.91075 -61.91953 35982 ft 494 kts 314°
2026-04-26 17:14 -10.83833 -61.99341 35983 ft 494 kts 318°
2026-04-26 17:15 -10.76336 -62.06364 35982 ft 488 kts 318°
2026-04-26 17:16 -10.71364 -62.11075 35982 ft 489 kts 318°
2026-04-26 17:16 -10.66394 -62.15781 35982 ft 489 kts 318°
2026-04-26 17:17 -10.61460 -62.20503 35983 ft 489 kts 317°
2026-04-26 17:17 -10.56493 -62.25253 35986 ft 493 kts 317°
2026-04-26 17:18 -10.51491 -62.30022 35986 ft 493 kts 317°
2026-04-26 17:18 -10.46518 -62.34764 35986 ft 493 kts 317°
2026-04-26 17:19 -10.39068 -62.41878 35983 ft 495 kts 317°
2026-04-26 17:19 -10.34079 -62.46673 35980 ft 485 kts 317°
2026-04-26 17:20 -10.31677 -62.48949 35943 ft 465 kts 317°
2026-04-26 17:20 -10.30902 -62.49692 35885 ft 460 kts 317°
2026-04-26 17:20 -10.27095 -62.53384 34883 ft 454 kts 317°
2026-04-26 17:20 -10.24821 -62.55592 34324 ft 449 kts 317°
2026-04-26 17:21 -10.22582 -62.57759 33798 ft 444 kts 317°
2026-04-26 17:21 -10.20348 -62.59902 33242 ft 440 kts 316°
2026-04-26 17:21 -10.18156 -62.62025 32634 ft 438 kts 316°
2026-04-26 17:21 -10.15971 -62.64142 32129 ft 433 kts 316°
2026-04-26 17:22 -10.13800 -62.66226 31602 ft 429 kts 317°
2026-04-26 17:22 -10.11690 -62.68208 31094 ft 425 kts 317°
2026-04-26 17:22 -10.10162 -62.69656 30739 ft 422 kts 317°
2026-04-26 17:22 -10.08448 -62.71297 30369 ft 419 kts 317°
2026-04-26 17:23 -10.06265 -62.73385 29867 ft 416 kts 317°
2026-04-26 17:23 -10.04261 -62.75274 29446 ft 412 kts 317°
2026-04-26 17:23 -10.02261 -62.77187 29035 ft 409 kts 317°
2026-04-26 17:23 -10.00384 -62.78974 28636 ft 406 kts 317°
2026-04-26 17:24 -9.98220 -62.81014 28187 ft 403 kts 317°
2026-04-26 17:24 -9.96194 -62.82947 27728 ft 401 kts 317°
2026-04-26 17:24 -9.94173 -62.84864 27349 ft 397 kts 317°
2026-04-26 17:24 -9.92167 -62.86769 26925 ft 394 kts 317°
2026-04-26 17:25 -9.90184 -62.88652 26518 ft 391 kts 317°
2026-04-26 17:25 -9.88204 -62.90526 26108 ft 388 kts 317°
2026-04-26 17:25 -9.86239 -62.92384 25702 ft 385 kts 317°
2026-04-26 17:25 -9.84290 -62.94229 25300 ft 382 kts 317°
2026-04-26 17:26 -9.82370 -62.96045 24897 ft 380 kts 317°
2026-04-26 17:26 -9.80758 -62.97570 24547 ft 378 kts 317°
2026-04-26 17:26 -9.78813 -62.99409 24125 ft 376 kts 317°
2026-04-26 17:26 -9.76869 -63.01248 23566 ft 378 kts 317°
2026-04-26 17:27 -9.74959 -63.03057 23217 ft 374 kts 317°
2026-04-26 17:27 -9.73068 -63.04843 22828 ft 372 kts 317°
2026-04-26 17:27 -9.71185 -63.06616 22430 ft 370 kts 317°
2026-04-26 17:27 -9.69310 -63.08388 22042 ft 367 kts 317°
2026-04-26 17:28 -9.67449 -63.10145 21658 ft 365 kts 317°
2026-04-26 17:28 -9.65600 -63.11891 21280 ft 363 kts 317°
2026-04-26 17:28 -9.63772 -63.13618 20908 ft 360 kts 318°
2026-04-26 17:28 -9.62040 -63.15253 20559 ft 358 kts 318°
2026-04-26 17:29 -9.60134 -63.17053 20175 ft 355 kts 318°
2026-04-26 17:29 -9.58930 -63.18192 19933 ft 354 kts 318°
2026-04-26 17:29 -9.56559 -63.20431 19463 ft 350 kts 318°
2026-04-26 17:29 -9.54789 -63.22104 19084 ft 349 kts 318°
2026-04-26 17:30 -9.53010 -63.23785 18702 ft 347 kts 318°
2026-04-26 17:30 -9.51246 -63.25451 18352 ft 345 kts 319°
2026-04-26 17:30 -9.49502 -63.27097 17994 ft 343 kts 319°
2026-04-26 17:30 -9.47762 -63.28729 17643 ft 341 kts 319°
2026-04-26 17:31 -9.46038 -63.30357 17294 ft 339 kts 319°
2026-04-26 17:31 -9.44319 -63.31976 16947 ft 337 kts 319°
2026-04-26 17:31 -9.42627 -63.33576 16608 ft 335 kts 319°
2026-04-26 17:31 -9.40937 -63.35189 16268 ft 333 kts 319°
2026-04-26 17:32 -9.39793 -63.36316 16035 ft 332 kts 317°
2026-04-26 17:32 -9.37674 -63.38472 15597 ft 329 kts 317°
2026-04-26 17:32 -9.36078 -63.40103 15121 ft 325 kts 317°
2026-04-26 17:32 -9.34502 -63.41708 14576 ft 323 kts 317°
2026-04-26 17:33 -9.32915 -63.43331 13931 ft 325 kts 317°
2026-04-26 17:33 -9.31363 -63.44956 13456 ft 321 kts 316°
2026-04-26 17:33 -9.29894 -63.46484 12998 ft 317 kts 317°
2026-04-26 17:34 -9.26765 -63.49716 11988 ft 312 kts 316°
2026-04-26 17:34 -9.25273 -63.51289 11506 ft 309 kts 316°
2026-04-26 17:34 -9.23790 -63.52852 11025 ft 306 kts 316°
2026-04-26 17:34 -9.22333 -63.54386 10557 ft 304 kts 316°
2026-04-26 17:35 -9.20864 -63.55930 10082 ft 301 kts 316°
2026-04-26 17:35 -9.19443 -63.57426 9927 ft 288 kts 316°
2026-04-26 17:35 -9.18088 -63.58852 9657 ft 281 kts 316°
2026-04-26 17:35 -9.16907 -63.60093 9255 ft 281 kts 316°
2026-04-26 17:36 -9.15416 -63.61661 8830 ft 278 kts 316°
2026-04-26 17:36 -9.14073 -63.63072 8367 ft 279 kts 316°
2026-04-26 17:36 -9.12900 -63.64304 8077 ft 275 kts 317°
2026-04-26 17:36 -9.11408 -63.65865 7626 ft 274 kts 317°
2026-04-26 17:37 -9.10087 -63.67222 7253 ft 272 kts 317°
2026-04-26 17:37 -9.08778 -63.68578 6876 ft 270 kts 317°
2026-04-26 17:37 -9.07481 -63.69927 6469 ft 269 kts 317°
2026-04-26 17:38 -9.04859 -63.72633 5714 ft 266 kts 316°
2026-04-26 17:38 -9.03568 -63.73966 5343 ft 265 kts 316°
2026-04-26 17:38 -9.02290 -63.75288 4982 ft 263 kts 316°
2026-04-26 17:38 -9.01015 -63.76602 4625 ft 261 kts 316°
2026-04-26 17:39 -8.99750 -63.77902 4269 ft 259 kts 316°
2026-04-26 17:39 -8.98493 -63.79195 3915 ft 258 kts 316°
2026-04-26 17:39 -8.97240 -63.80480 3564 ft 256 kts 316°
2026-04-26 17:39 -8.96000 -63.81751 3177 ft 256 kts 316°
2026-04-26 17:40 -8.94753 -63.83029 2838 ft 254 kts 316°
2026-04-26 17:40 -8.93931 -63.83873 2608 ft 253 kts 316°
2026-04-26 17:40 -8.92292 -63.85557 2144 ft 251 kts 315°
2026-04-26 17:40 -8.91077 -63.86802 1984 ft 248 kts 316°
2026-04-26 17:41 -8.89907 -63.87979 1869 ft 236 kts 317°
2026-04-26 17:41 -8.88619 -63.88923 1743 ft 213 kts 334°
2026-04-26 17:41 -8.87310 -63.89278 1700 ft 179 kts 353°
2026-04-26 17:41 -8.86241 -63.89357 1694 ft 147 kts 358°
2026-04-26 17:42 -8.85325 -63.89408 1691 ft 129 kts 358°
2026-04-26 17:42 -8.84471 -63.89456 1695 ft 126 kts 359°
2026-04-26 17:42 -8.83587 -63.89502 1712 ft 128 kts 359°
2026-04-26 17:42 -8.82657 -63.89550 1692 ft 127 kts 359°
2026-04-26 17:43 -8.82047 -63.89583 1705 ft 127 kts 359°
2026-04-26 17:43 -8.81353 -63.89628 1685 ft 127 kts 358°
2026-04-26 17:43 -8.80508 -63.89678 1703 ft 127 kts 359°
2026-04-26 17:43 -8.79605 -63.89725 1678 ft 128 kts 359°
2026-04-26 17:44 -8.78716 -63.89771 1517 ft 127 kts 359°
2026-04-26 17:44 -8.77841 -63.89816 1366 ft 127 kts 359°
2026-04-26 17:44 -8.76959 -63.89868 1215 ft 126 kts 358°
2026-04-26 17:44 -8.76084 -63.89921 1065 ft 126 kts 358°
2026-04-26 17:45 -8.75209 -63.89975 914 ft 126 kts 358°
2026-04-26 17:45 -8.74338 -63.90034 764 ft 126 kts 358°
2026-04-26 17:45 -8.73467 -63.90082 613 ft 126 kts 358°
2026-04-26 17:45 -8.72601 -63.90129 463 ft 126 kts 358°
2026-04-26 17:46 -8.71730 -63.90187 321 ft 124 kts 357°
2026-04-26 17:46 -8.70953 -63.90239 298 ft 87 kts 358°
2026-04-26 17:46 -8.70558 -63.90260 298 ft 32 kts 356°
2026-04-26 17:46 -8.70379 -63.90271 298 ft 17 kts 357°
2026-04-26 17:47 -8.70282 -63.90276 298 ft 11 kts 357°
2026-04-26 17:47 -8.70244 -63.90278 298 ft 8 kts 358°
2026-04-26 17:47 -8.70199 -63.90259 298 ft 3 kts 55°
2026-04-26 17:47 -8.70193 -63.90241 298 ft 3 kts 80°
2026-04-26 17:48 -8.70191 -63.90217 298 ft 4 kts 84°
2026-04-26 17:48 -8.70188 -63.90185 298 ft 5 kts 86°
2026-04-26 17:48 -8.70185 -63.90145 298 ft 6 kts 86°
2026-04-26 17:48 -8.70185 -63.90099 298 ft 7 kts 103°
2026-04-26 17:49 -8.70217 -63.90080 298 ft 6 kts 177°
2026-04-26 17:49 -8.70262 -63.90078 298 ft 7 kts 177°
2026-04-26 17:49 -8.70315 -63.90075 298 ft 8 kts 177°
2026-04-26 17:49 -8.70375 -63.90072 298 ft 9 kts 177°
2026-04-26 17:50 -8.70444 -63.90068 298 ft 10 kts 177°
2026-04-26 17:50 -8.70521 -63.90064 298 ft 12 kts 177°
2026-04-26 17:50 -8.70606 -63.90059 298 ft 13 kts 177°
2026-04-26 17:50 -8.70698 -63.90054 298 ft 14 kts 176°
2026-04-26 17:51 -8.70796 -63.90048 298 ft 15 kts 175°
2026-04-26 17:51 -8.70899 -63.90038 298 ft 16 kts 173°
2026-04-26 17:51 -8.71009 -63.90026 298 ft 16 kts 174°
2026-04-26 17:51 -8.71109 -63.90019 298 ft 15 kts 176°
2026-04-26 17:52 -8.71205 -63.90013 298 ft 12 kts 176°
2026-04-26 17:52 -8.71293 -63.90007 298 ft 13 kts 176°
2026-04-26 17:52 -8.71343 -63.90006 298 ft 1 kts 159°
2026-04-26 17:52 -8.71346 -63.90005 298 ft 1 kts 151°
2026-04-26 17:53 -8.71352 -63.89998 298 ft 2 kts 123°
2026-04-26 17:53 -8.71352 -63.89981 298 ft 2 kts 85°
2026-04-26 17:53 -8.71353 -63.89989 298 ft 2 kts 85°
2026-04-26 17:54 -8.71354 -63.89994 298 ft 0 kts 85°